HST 1 20580U 90037B 25183.55158605 .00005037 00000-0 18527-3 0 9999 2 20580 28.4686 300.7623 0001721 262.8803 97.1596 15.25457604735036 ISS (ZARYA) 1 25544U 98067A 25184.44352307 .00005261 00000-0 98866-4 0 9993 2 25544 51.6345 226.5029 0002404 327.7147 32.3695 15.50355829517681 CXO 1 25867U 99040B 25185.30516719 .00000413 00000-0 00000+0 0 9990 2 25867 49.8723 128.9033 8393697 309.7755 0.3417 0.37806887 27168